Weather observations for the past three days for
Jackson, Jackson Municipal Airport
| Date | Time (cdt) | Wind (kph) | Vis. (km) | Weather | Sky Cond. | Temperature (ºC) | Relative Humidity | Wind Chill (°C) | Heat Index (°C) | Pressure | Precipitation (cm) | ||||||
|---|---|---|---|---|---|---|---|---|---|---|---|---|---|---|---|---|---|
| Air | Dwpt | 6 hour | altimeter (cm) | sea level (mb) | 1 hr | 3 hr | 6 hr | ||||||||||
| Max. | Min. | ||||||||||||||||
| 30 | 23:15 | S 11 | 16.09 | Fair | CLR | 23 | 21 | 89% | 75.69 | 0.0 | |||||||
| 30 | 22:55 | S 9 | 16.09 | Fair | CLR | 24 | 21 | 83% | 24 | 75.69 | 0.0 | ||||||
| 30 | 22:36 | S 11 | 16.09 | Fair | CLR | 24 | 21 | 83% | 24 | 75.69 | 0.0 | ||||||
| 30 | 22:15 | S 11 | 16.09 | Fair | CLR | 24 | 21 | 83% | 24 | 75.69 | 0.0 | ||||||
| 30 | 21:55 | S 13 | 16.09 | Fair | CLR | 24 | 21 | 83% | 24 | 75.67 | 0.0 | ||||||
| 30 | 21:35 | S 13 | 16.09 | Fair | CLR | 24 | 21 | 83% | 24 | 75.69 | 0.0 | ||||||
| 30 | 21:15 | S 13 | 16.09 | Fair | CLR | 25 | 21 | 79% | 26 | 75.69 | 0.0 | ||||||
| 30 | 20:55 | S 15 | 16.09 | Fair | CLR | 26 | 21 | 74% | 27 | 75.67 | 0.0 | ||||||
| 30 | 20:35 | S 13 | 16.09 | Fair | CLR | 26 | 21 | 74% | 27 | 75.67 | 0.0 | ||||||
| 30 | 20:15 | S 13 | 16.09 | Fair | CLR | 26 | 21 | 74% | 27 | 75.67 | 0.0 | ||||||
| 30 | 19:56 | S 11 | 16.09 | Fair | CLR | 27 | 21 | 70% | 29 | 75.67 | 0.0 | ||||||
| 30 | 19:35 | S 11 | 16.09 | Fair | CLR | 27 | 21 | 70% | 29 | 75.64 | 0.0 | ||||||
| 30 | 19:15 | S 13 | 16.09 | Fair | CLR | 28 | 21 | 66% | 30 | 75.67 | 0.0 | ||||||
| 30 | 18:55 | S 15 | 16.09 | Fair | CLR | 29 | 21 | 62% | 31 | 75.64 | 0.0 | ||||||
| 30 | 18:35 | S 13 | 16.09 | Fair | CLR | 29 | 21 | 62% | 31 | 75.64 | 0.0 | ||||||
| 30 | 18:15 | S 17 | 16.09 | Fair | CLR | 29 | 20 | 58% | 31 | 75.62 | 0.0 | ||||||
| 30 | 17:55 | S 20 | 16.09 | Fair | CLR | 30 | 20 | 55% | 32 | 75.62 | 0.0 | ||||||
| 30 | 17:36 | S 24 G 31 | 16.09 | Fair | CLR | 30 | 21 | 59% | 33 | 75.59 | 0.0 | ||||||
| 30 | 17:15 | S 20 G 28 | 16.09 | Fair | CLR | 30 | 21 | 59% | 33 | 75.62 | 0.0 | ||||||
| 30 | 16:55 | S 17 | 16.09 | Fair | CLR | 31 | 21 | 55% | 34 | 75.57 | 0.0 | ||||||
| 30 | 16:35 | S 19 | 16.09 | Fair | CLR | 30 | 20 | 55% | 32 | 75.59 | 0.0 | ||||||
| 30 | 16:15 | S 19 G 28 | 16.09 | Fair | CLR | 31 | 20 | 52% | 33 | 75.59 | 0.0 | ||||||
| 30 | 15:55 | S 20 G 33 | 16.09 | Fair | CLR | 31 | 20 | 52% | 33 | 75.59 | 0.0 | ||||||
| 30 | 15:35 | S 20 | 16.09 | Fair | CLR | 31 | 20 | 52% | 33 | 75.62 | 0.0 | ||||||
| 30 | 15:16 | S 15 | 16.09 | Fair | CLR | 31 | 21 | 55% | 34 | 75.62 | 0.0 | ||||||
| 30 | 14:55 | S 17 G 26 | 16.09 | Fair | CLR | 31 | 21 | 55% | 34 | 75.62 | 0.0 | ||||||
| 30 | 14:35 | S 19 | 16.09 | Fair | CLR | 31 | 20 | 52% | 33 | 75.62 | 0.0 | ||||||
| 30 | 14:15 | S 20 | 16.09 | Fair | CLR | 32 | 20 | 49% | 34 | 75.62 | 0.0 | ||||||
| 30 | 13:55 | S 17 | 16.09 | Fair | CLR | 31 | 19 | 49% | 32 | 75.62 | 0.0 | ||||||
| 30 | 13:35 | SW 15 | 16.09 | Fair | CLR | 31 | 19 | 49% | 32 | 75.62 | 0.0 | ||||||
| 30 | 13:15 | S 15 | 16.09 | Fair | CLR | 31 | 21 | 55% | 34 | 75.62 | 0.0 | ||||||
| 30 | 12:56 | S 17 | 16.09 | Fair | CLR | 30 | 21 | 59% | 33 | 75.64 | 0.0 | ||||||
| 30 | 12:35 | S 13 | 16.09 | Fair | CLR | 29 | 21 | 62% | 31 | 75.64 | 0.0 | ||||||
| 30 | 12:15 | SW 7 | 16.09 | Fair | CLR | 29 | 21 | 62% | 31 | 75.67 | 0.0 | ||||||
| 30 | 11:55 | S 13 | 16.09 | Fair | CLR | 28 | 22 | 70% | 31 | 75.67 | 0.0 | ||||||
| 30 | 11:35 | S 15 | 16.09 | Fair | CLR | 28 | 21 | 66% | 30 | 75.67 | 0.0 | ||||||
| 30 | 11:15 | Calm | 16.09 | Fair | CLR | 27 | 21 | 70% | 29 | 75.67 | 0.0 | ||||||
| 30 | 10:55 | S 17 | 16.09 | Fair | CLR | 27 | 20 | 66% | 29 | 75.69 | 0.0 | ||||||
| 30 | 10:36 | S 7 | 16.09 | Thunderstorm in Vicinity | CLR | 26 | 20 | 70% | 27 | 75.67 | 0.0 | ||||||
| 30 | 10:15 | S 6 | 16.09 | Thunderstorm in Vicinity | CLR | 25 | 20 | 74% | 26 | 75.67 | 0.0 | ||||||
| 30 | 09:55 | S 17 | 16.09 | Thunderstorm in Vicinity | CLR | 25 | 20 | 74% | 26 | 75.67 | 0.0 | ||||||
| 30 | 09:35 | S 9 | 16.09 | Fair | CLR | 25 | 20 | 74% | 26 | 75.64 | 0.0 | ||||||
| 30 | 09:15 | S 11 | 16.09 | Fair | CLR | 23 | 20 | 83% | 75.67 | 0.0 | |||||||
| 30 | 08:55 | S 11 | 16.09 | Fair | CLR | 23 | 20 | 83% | 75.67 | 0.0 | |||||||
| 30 | 08:35 | E 6 | 16.09 | Fair | CLR | 22 | 20 | 88% | 75.64 | 0.0 | |||||||
| 30 | 08:16 | E 6 | 16.09 | Fair | CLR | 21 | 20 | 94% | 75.67 | 0.0 | |||||||
| 30 | 07:55 | E 6 | 11.27 | Fair | CLR | 20 | 20 | 100% | 75.64 | 0.0 | |||||||
| 30 | 07:35 | E 6 | 11.27 | Fair | CLR | 20 | 20 | 100% | 75.64 | 0.0 | |||||||
| 30 | 07:15 | Calm | 16.09 | Fair | CLR | 20 | 20 | 100% | 75.62 | 0.0 | |||||||
| 30 | 06:55 | Calm | 16.09 | Fair | CLR | 20 | 20 | 100% | 75.62 | 0.0 | |||||||
| 30 | 06:35 | Calm | 16.09 | Fair | CLR | 20 | 20 | 100% | 75.62 | 0.0 | |||||||
| 30 | 06:15 | Calm | 16.09 | Fair | CLR | 20 | 20 | 100% | 75.62 | 0.0 | |||||||
| 30 | 05:56 | Calm | 16.09 | Fair | CLR | 20 | 20 | 100% | 75.64 | 0.0 | |||||||
| 30 | 05:35 | S 6 | 16.09 | Fair | CLR | 20 | 20 | 100% | 75.64 | 0.0 | |||||||
| 30 | 05:15 | SE 6 | 8.05 | Fog/Mist | CLR | 19 | 19 | 100% | 75.67 | 0.0 | |||||||
| 30 | 04:55 | SE 6 | 11.27 | Fair | CLR | 20 | 20 | 100% | 75.67 | 0.0 | |||||||
| 30 | 04:35 | SE 7 | 6.44 | Fog/Mist | CLR | 19 | 19 | 100% | 75.67 | 0.0 | |||||||
| 30 | 04:15 | SE 6 | 8.05 | Fog/Mist | CLR | 20 | 20 | 100% | 75.67 | 0.0 | |||||||
| 30 | 03:55 | Calm | 11.27 | Fair | CLR | 20 | 20 | 100% | 75.69 | 0.0 | |||||||
| 30 | 03:36 | SE 6 | 11.27 | Fair | CLR | 20 | 20 | 100% | 75.67 | 0.0 | |||||||
| 30 | 03:15 | SE 7 | 6.44 | Fog/Mist | CLR | 19 | 19 | 100% | 75.64 | 0.0 | |||||||
| 30 | 02:55 | SE 7 | 8.05 | Fog/Mist | CLR | 20 | 20 | 100% | 75.67 | 0.0 | |||||||
| 30 | 02:35 | E 6 | 8.05 | Fog/Mist | CLR | 20 | 19 | 94% | 75.67 | 0.0 | |||||||
| 30 | 02:15 | E 6 | 11.27 | Fair | CLR | 20 | 19 | 94% | 75.69 | 0.0 | |||||||
| 30 | 01:55 | SE 7 | 8.05 | Fog/Mist | CLR | 20 | 19 | 94% | 75.69 | 0.0 | |||||||
| 30 | 01:35 | E 9 | 11.27 | Fair | CLR | 20 | 19 | 94% | 75.69 | 0.0 | |||||||
| 30 | 01:16 | SE 7 | 16.09 | Fair | CLR | 20 | 19 | 94% | 75.69 | 0.0 | |||||||
| 30 | 00:55 | SE 9 | 11.27 | Fair | CLR | 20 | 19 | 94% | 75.67 | 0.0 | |||||||
| 30 | 00:35 | SE 6 | 16.09 | Fair | CLR | 21 | 19 | 88% | 75.72 | 0.0 | |||||||
| 30 | 00:15 | Calm | 16.09 | Fair | CLR | 21 | 19 | 88% | 75.74 | 0.0 | |||||||
| 29 | 23:55 | E 6 | 16.09 | Fair | CLR | 20 | 19 | 94% | 75.74 | 0.0 | |||||||
| 29 | 23:35 | Calm | 16.09 | Fair | CLR | 21 | 19 | 88% | 75.74 | 0.0 | |||||||
| 29 | 23:15 | S 6 | 16.09 | Fair | CLR | 22 | 19 | 83% | 75.74 | 0.0 | |||||||
| 29 | 22:56 | S 7 | 16.09 | Fair | CLR | 22 | 19 | 83% | 75.74 | 0.0 | |||||||
| 29 | 22:35 | S 7 | 16.09 | Fair | CLR | 22 | 19 | 83% | 75.74 | 0.0 | |||||||
| 29 | 22:15 | S 6 | 16.09 | Fair | CLR | 22 | 19 | 83% | 75.74 | 0.0 | |||||||
| 29 | 21:55 | S 6 | 16.09 | Fair | CLR | 22 | 19 | 83% | 75.74 | 0.0 | |||||||
| 29 | 21:35 | S 7 | 16.09 | Fair | CLR | 23 | 19 | 78% | 75.74 | 0.0 | |||||||
| 29 | 21:15 | S 9 | 16.09 | Fair | CLR | 23 | 19 | 78% | 75.74 | 0.0 | |||||||
| 29 | 20:55 | S 6 | 16.09 | Fair | CLR | 24 | 19 | 74% | 25 | 75.74 | 0.0 | ||||||
| 29 | 20:36 | SE 7 | 16.09 | Fair | CLR | 24 | 19 | 74% | 25 | 75.72 | 0.0 | ||||||
| 29 | 20:15 | S 6 | 16.09 | Fair | CLR | 25 | 19 | 69% | 26 | 75.72 | 0.0 | ||||||
| 29 | 19:55 | S 7 | 16.09 | Fair | CLR | 25 | 19 | 69% | 26 | 75.69 | 0.0 | ||||||
| 29 | 19:35 | S 7 | 16.09 | Fair | CLR | 26 | 20 | 70% | 27 | 75.69 | 0.0 | ||||||
| 29 | 19:15 | S 9 | 16.09 | Fair | CLR | 27 | 20 | 66% | 29 | 75.67 | 0.0 | ||||||
| 29 | 18:55 | S 11 | 16.09 | Fair | CLR | 27 | 19 | 62% | 28 | 75.67 | 0.0 | ||||||
| 29 | 18:35 | S 9 | 16.09 | Fair | CLR | 28 | 20 | 62% | 30 | 75.64 | 0.0 | ||||||
| 29 | 18:16 | S 11 | 16.09 | Fair | CLR | 28 | 19 | 58% | 29 | 75.67 | 0.0 | ||||||
| 29 | 17:55 | S 15 | 16.09 | Fair | CLR | 29 | 18 | 51% | 30 | 75.67 | 0.0 | ||||||
| 29 | 17:35 | SW 15 | 16.09 | Fair | CLR | 29 | 19 | 55% | 30 | 75.67 | 0.0 | ||||||
| 29 | 17:15 | SW 11 | 16.09 | Fair | CLR | 29 | 19 | 55% | 30 | 75.67 | 0.0 | ||||||
| 29 | 16:55 | S 13 | 16.09 | Fair | CLR | 29 | 19 | 55% | 30 | 75.67 | 0.0 | ||||||
| 29 | 16:35 | S 11 | 16.09 | Fair | CLR | 29 | 19 | 55% | 30 | 75.67 | 0.0 | ||||||
| 29 | 16:15 | SW 13 | 16.09 | Fair | CLR | 28 | 19 | 58% | 29 | 75.69 | 0.0 | ||||||
| 29 | 15:55 | S 15 | 16.09 | Fair | CLR | 28 | 18 | 55% | 29 | 75.69 | 0.0 | ||||||
| 29 | 15:35 | S 19 | 16.09 | Fair | CLR | 29 | 18 | 51% | 30 | 75.69 | 0.0 | ||||||
| 29 | 15:15 | S 17 | 16.09 | Fair | CLR | 28 | 18 | 55% | 29 | 75.72 | 0.0 | ||||||
| 29 | 14:55 | SW 19 G 28 | 16.09 | Fair | CLR | 28 | 18 | 55% | 29 | 75.72 | 0.0 | ||||||
| 29 | 14:35 | SW 20 G 31 | 16.09 | Fair | CLR | 27 | 17 | 54% | 28 | 75.72 | 0.0 | ||||||
| 29 | 14:15 | S 20 G 35 | 16.09 | Fair | CLR | 27 | 17 | 54% | 28 | 75.72 | 0.0 | ||||||
| 29 | 13:55 | S 20 | 16.09 | Fair | CLR | 26 | 18 | 61% | 27 | 75.74 | 0.0 | ||||||
| 29 | 13:35 | S 17 | 16.09 | Fair | CLR | 25 | 17 | 61% | 26 | 75.74 | 0.0 | ||||||
| 29 | 13:16 | S 15 | 16.09 | Fair | CLR | 24 | 16 | 61% | 25 | 75.79 | 0.0 | ||||||
| 29 | 12:55 | S 26 | 16.09 | Fair | CLR | 25 | 17 | 61% | 26 | 75.77 | 0.0 | ||||||
| 29 | 12:35 | S 19 | 16.09 | Fair | CLR | 25 | 17 | 61% | 26 | 75.79 | 0.0 | ||||||
| 29 | 12:15 | S 22 | 16.09 | Fair | CLR | 25 | 17 | 61% | 26 | 75.84 | 0.0 | ||||||
| 29 | 11:55 | SW 22 G 30 | 16.09 | Fair | CLR | 25 | 17 | 61% | 26 | 75.84 | 0.0 | ||||||
| 29 | 11:35 | S 24 G 37 | 16.09 | Fair | CLR | 23 | 16 | 65% | 75.82 | 0.0 | |||||||
| 29 | 11:15 | S 26 G 33 | 16.09 | Fair | CLR | 23 | 17 | 69% | 75.84 | 0.0 | |||||||
| 29 | 10:56 | S 26 G 33 | 16.09 | Fair | CLR | 23 | 17 | 69% | 75.84 | 0.0 | |||||||
| 29 | 10:35 | S 28 G 37 | 16.09 | Fair | CLR | 21 | 17 | 78% | 75.84 | 0.0 | |||||||
| 29 | 10:15 | S 24 G 33 | 16.09 | Fair | CLR | 21 | 17 | 78% | 75.84 | 0.0 | |||||||
| 29 | 09:55 | S 24 G 35 | 16.09 | Fair | CLR | 20 | 17 | 83% | 75.84 | 0.0 | |||||||
| 29 | 09:35 | S 24 | 16.09 | Fair | CLR | 20 | 17 | 83% | 75.84 | 0.0 | |||||||
| 29 | 09:15 | S 26 G 37 | 16.09 | Fair | CLR | 20 | 16 | 78% | 75.84 | 0.0 | |||||||
| 29 | 08:55 | S 26 G 41 | 16.09 | Fair | CLR | 19 | 17 | 88% | 75.82 | 0.0 | |||||||
| 29 | 08:36 | S 30 G 41 | 16.09 | Fair | CLR | 19 | 17 | 88% | 75.82 | 0.0 | |||||||
| 29 | 08:15 | S 28 G 37 | 16.09 | Fair | CLR | 19 | 17 | 88% | 75.84 | 0.0 | |||||||
| 29 | 07:55 | S 28 G 41 | 16.09 | Fair | CLR | 19 | 17 | 88% | 75.84 | 0.0 | |||||||
| 29 | 07:35 | S 31 G 41 | 16.09 | Fair | CLR | 19 | 17 | 88% | 75.84 | 0.0 | |||||||
| 29 | 07:15 | S 30 G 46 | 16.09 | Thunderstorm in Vicinity | SCT095 | 19 | 17 | 88% | 75.87 | 0.0 | |||||||
| 29 | 06:55 | SE 30 | 16.09 | Thunderstorm Light Rain | BKN095 BKN120 | 19 | 17 | 88% | 75.97 | 0.0 | 0.05 | ||||||
| 29 | 06:35 | SE 22 G 37 | 16.09 | Thunderstorm Light Rain | SCT030 BKN095 OVC120 | 19 | 17 | 88% | 76.02 | 0.0 | 0.03 | ||||||
| 29 | 06:16 | NE 9 | 16.09 | Thunderstorm Light Rain | SCT095 BKN110 | 19 | 17 | 88% | 76.17 | 0.0 | |||||||
| 29 | 05:55 | S 17 | 11.27 | Thunderstorm Light Rain | BKN110 | 19 | 18 | 94% | 76.1 | 0.0 | 0.2 | ||||||
| 29 | 05:35 | S 17 | 11.27 | Thunderstorm Rain | SCT075 BKN110 | 19 | 18 | 94% | 76.23 | 0.0 | 0.13 | ||||||
| 29 | 05:15 | SW 9 | 16.09 | Thunderstorm Light Rain | SCT080 SCT090 BKN110 | 19 | 18 | 94% | 76.3 | 0.0 | 0.05 | ||||||
| 29 | 04:55 | S 6 | 11.27 | Thunderstorm Rain in Vicinity | SCT080 BKN100 BKN120 | 19 | 17 | 88% | 76.2 | 0.0 | 0.18 | ||||||
| 29 | 04:35 | SE 11 | 16.09 | Light Rain | SCT080 SCT110 | 19 | 17 | 88% | 76.12 | 0.0 | 0.13 | ||||||
| 29 | 04:15 | S 15 | 16.09 | Rain | SCT029 SCT085 BKN110 | 19 | 17 | 88% | 76.1 | 0.0 | 0.08 | ||||||
| 29 | 03:56 | S 13 | 16.09 | Light Rain | SCT100 SCT110 | 20 | 17 | 83% | 76.1 | 0.0 | |||||||
| 29 | 03:35 | S 13 | 16.09 | Partly Cloudy | SCT100 SCT120 | 21 | 17 | 78% | 76.1 | 0.0 | |||||||
| 29 | 03:15 | SE 17 G 26 | 16.09 | Fair | CLR | 21 | 17 | 78% | 76.05 | 0.0 | |||||||
| 29 | 02:55 | SE 17 | 16.09 | Partly Cloudy | SCT110 | 21 | 17 | 78% | 76.05 | 0.0 | |||||||
| 29 | 02:35 | SE 15 | 16.09 | Overcast | OVC110 | 21 | 17 | 78% | 76.12 | 0.0 | |||||||
| 29 | 02:15 | SE 13 | 16.09 | Mostly Cloudy | BKN110 | 21 | 17 | 78% | 76.15 | 0.0 | |||||||
| 29 | 01:55 | SE 17 | 16.09 | Mostly Cloudy | BKN100 | 22 | 17 | 73% | 76.15 | 0.0 | |||||||
| 29 | 01:36 | SE 13 | 16.09 | Thunderstorm in Vicinity | OVC100 | 22 | 17 | 73% | 76.17 | 0.0 | |||||||
| 29 | 01:15 | SE 15 | 16.09 | Overcast | OVC100 | 22 | 17 | 73% | 76.17 | 0.0 | |||||||
| 29 | 00:55 | SE 17 | 16.09 | Thunderstorm | SCT041 OVC100 | 22 | 17 | 73% | 76.2 | 0.0 | |||||||
| 29 | 00:35 | N 15 | 16.09 | Thunderstorm | OVC100 | 22 | 18 | 78% | 76.28 | 0.0 | |||||||
| 29 | 00:15 | S 11 | 16.09 | Mostly Cloudy | BKN100 BKN120 | 22 | 18 | 78% | 76.2 | 0.0 | |||||||
| 28 | 23:55 | S 15 | 16.09 | Thunderstorm Light Rain | SCT120 | 22 | 18 | 78% | 76.2 | 0.0 | |||||||
| 28 | 23:35 | S 15 | 16.09 | Light Rain | CLR | 22 | 17 | 73% | 76.2 | 0.0 | |||||||
| 28 | 23:16 | S 17 | 16.09 | Fair | CLR | 22 | 17 | 73% | 76.2 | 0.0 | |||||||
| 28 | 22:55 | S 19 | 16.09 | Fair | CLR | 22 | 17 | 73% | 76.17 | 0.0 | |||||||
| 28 | 22:35 | S 20 G 30 | 16.09 | Partly Cloudy | SCT110 | 23 | 17 | 69% | 76.2 | 0.0 | |||||||
| 28 | 22:15 | S 19 | 16.09 | Partly Cloudy | SCT110 | 23 | 17 | 69% | 76.23 | 0.0 | |||||||
| 28 | 21:55 | S 19 | 16.09 | Fair | CLR | 23 | 17 | 69% | 76.23 | 0.0 | |||||||
| 28 | 21:35 | S 13 | 16.09 | Partly Cloudy | SCT100 SCT120 | 23 | 17 | 69% | 76.23 | 0.0 | |||||||
| 28 | 21:15 | S 15 | 16.09 | Partly Cloudy | SCT090 SCT110 | 23 | 17 | 69% | 76.25 | 0.0 | |||||||
| 28 | 20:55 | S 15 | 16.09 | Partly Cloudy | SCT090 SCT120 | 23 | 17 | 69% | 76.25 | 0.0 | |||||||
| 28 | 20:36 | S 13 | 16.09 | Fair | CLR | 23 | 17 | 69% | 76.25 | 0.0 | |||||||
| 28 | 20:15 | S 13 | 16.09 | Fair | CLR | 24 | 17 | 65% | 25 | 76.23 | 0.0 | ||||||
| 28 | 19:55 | SE 13 | 16.09 | Fair | CLR | 24 | 17 | 65% | 25 | 76.23 | 0.0 | ||||||
| 28 | 19:35 | S 13 | 16.09 | Fair | CLR | 24 | 17 | 65% | 25 | 76.23 | 0.0 | ||||||
| 28 | 19:15 | S 15 | 16.09 | Fair | CLR | 25 | 17 | 61% | 26 | 76.23 | 0.0 | ||||||
| 28 | 18:55 | S 15 | 16.09 | Fair | CLR | 25 | 17 | 61% | 26 | 76.25 | 0.0 | ||||||
| 28 | 18:35 | S 13 | 16.09 | Fair | CLR | 26 | 17 | 58% | 27 | 76.25 | 0.0 | ||||||
| 28 | 18:16 | S 15 | 16.09 | Fair | CLR | 26 | 17 | 58% | 27 | 76.28 | 0.0 | ||||||
| 28 | 17:55 | S 17 | 16.09 | Fair | CLR | 26 | 16 | 54% | 27 | 76.3 | 0.0 | ||||||
| 28 | 17:35 | S 17 | 16.09 | Fair | CLR | 27 | 16 | 51% | 27 | 76.3 | 0.0 | ||||||
| 28 | 17:15 | S 17 | 16.09 | Fair | CLR | 27 | 16 | 51% | 27 | 76.3 | 0.0 | ||||||
| 28 | 16:55 | S 15 | 16.09 | Fair | CLR | 26 | 16 | 54% | 27 | 76.33 | 0.0 | ||||||
| 28 | 16:35 | SE 11 | 16.09 | Fair | CLR | 26 | 16 | 54% | 27 | 76.35 | 0.0 | ||||||
| 28 | 16:15 | S 15 | 16.09 | Fair | CLR | 26 | 16 | 54% | 27 | 76.35 | 0.0 | ||||||
| 28 | 15:56 | SE 13 | 16.09 | Fair | CLR | 26 | 16 | 54% | 27 | 76.35 | 0.0 | ||||||
| 28 | 15:35 | SE 13 | 16.09 | Fair | CLR | 26 | 16 | 54% | 27 | 76.4 | 0.0 | ||||||
| 28 | 15:15 | S 11 | 16.09 | Fair | CLR | 26 | 15 | 51% | 27 | 76.43 | 0.0 | ||||||
| 28 | 14:55 | S 15 | 16.09 | Fair | CLR | 26 | 16 | 54% | 27 | 76.43 | 0.0 | ||||||
| 28 | 14:35 | S 13 | 16.09 | Fair | CLR | 26 | 15 | 51% | 27 | 76.45 | 0.0 | ||||||
| 28 | 14:15 | S 13 | 16.09 | Fair | CLR | 26 | 15 | 51% | 27 | 76.45 | 0.0 | ||||||
| 28 | 13:55 | S 13 | 16.09 | Fair | CLR | 27 | 15 | 48% | 27 | 76.48 | 0.0 | ||||||
| 28 | 13:36 | SW 15 | 16.09 | Fair | CLR | 27 | 16 | 51% | 27 | 76.48 | 0.0 | ||||||
| 28 | 13:15 | SW 15 | 16.09 | Fair | CLR | 27 | 16 | 51% | 27 | 76.5 | 0.0 | ||||||
| 28 | 12:55 | S 15 | 16.09 | Fair | CLR | 26 | 16 | 54% | 27 | 76.5 | 0.0 | ||||||
| 28 | 12:35 | SW 17 | 16.09 | Fair | CLR | 26 | 16 | 54% | 27 | 76.53 | 0.0 | ||||||
| 28 | 12:15 | S 15 | 16.09 | Fair | CLR | 25 | 16 | 57% | 26 | 76.53 | 0.0 | ||||||
| 28 | 11:55 | SW 13 | 16.09 | Fair | CLR | 25 | 16 | 57% | 26 | 76.56 | 0.0 | ||||||
| 28 | 11:35 | SW 15 | 16.09 | Fair | CLR | 25 | 16 | 57% | 26 | 76.58 | 0.0 | ||||||
| 28 | 11:16 | S 17 | 16.09 | Fair | CLR | 24 | 16 | 61% | 25 | 76.61 | 0.0 | ||||||
| 28 | 10:55 | S 11 | 16.09 | Fair | CLR | 24 | 16 | 61% | 25 | 76.61 | 0.0 | ||||||
| 28 | 10:35 | S 9 | 16.09 | Fair | CLR | 23 | 16 | 65% | 76.58 | 0.0 | |||||||
| 28 | 10:15 | S 11 | 16.09 | Fair | CLR | 22 | 16 | 69% | 76.58 | 0.0 | |||||||
| 28 | 09:55 | S 13 | 16.09 | Fair | CLR | 22 | 16 | 69% | 76.58 | 0.0 | |||||||
| 28 | 09:35 | S 15 | 16.09 | Fair | CLR | 21 | 15 | 69% | 76.61 | 0.0 | |||||||
| 28 | 09:15 | S 11 | 16.09 | Fair | CLR | 20 | 15 | 73% | 76.61 | 0.0 | |||||||
| 28 | 08:56 | S 9 | 16.09 | Fair | CLR | 20 | 15 | 73% | 76.61 | 0.0 | |||||||
| 28 | 08:35 | S 9 | 16.09 | Fair | CLR | 18 | 15 | 83% | 76.61 | 0.0 | |||||||
| 28 | 08:15 | S 6 | 16.09 | Fair | CLR | 17 | 14 | 83% | 76.63 | 0.0 | |||||||
| 28 | 07:55 | S 6 | 16.09 | Fair | CLR | 16 | 14 | 88% | 76.63 | 0.0 | |||||||
| 28 | 07:35 | S 6 | 16.09 | Fair | CLR | 15 | 13 | 88% | 76.61 | 0.0 | |||||||
| 28 | 07:15 | S 6 | 16.09 | Fair | CLR | 14 | 13 | 94% | 76.61 | 0.0 | |||||||
| 28 | 06:55 | Calm | 16.09 | Fair | CLR | 14 | 13 | 94% | 76.58 | 0.0 | |||||||
| 28 | 06:36 | S 7 | 16.09 | Fair | CLR | 14 | 13 | 94% | 76.58 | 0.0 | |||||||
| 28 | 06:15 | S 6 | 16.09 | Fair | CLR | 13 | 12 | 94% | 76.56 | 0.0 | |||||||
| 28 | 05:55 | Calm | 16.09 | Fair | CLR | 13 | 12 | 94% | 76.56 | 0.0 | |||||||
| 28 | 05:35 | Calm | 16.09 | Fair | CLR | 12 | 11 | 94% | 76.53 | 0.0 | |||||||
| 28 | 05:15 | Calm | 16.09 | Fair | CLR | 13 | 13 | 100% | 76.53 | 0.0 | |||||||
| 28 | 04:55 | Calm | 16.09 | Fair | CLR | 12 | 11 | 94% | 76.56 | 0.0 | |||||||
| 28 | 04:35 | Calm | 16.09 | Fair | CLR | 12 | 12 | 100% | 76.56 | 0.0 | |||||||
| 28 | 04:16 | Calm | 16.09 | Fair | CLR | 12 | 12 | 100% | 76.56 | 0.0 | |||||||
| 28 | 03:55 | Calm | 16.09 | Fair | CLR | 12 | 12 | 100% | 76.53 | 0.0 | |||||||
| 28 | 03:35 | Calm | 16.09 | Fair | CLR | 13 | 13 | 100% | 76.53 | 0.0 | |||||||
| 28 | 03:15 | Calm | 16.09 | Fair | CLR | 12 | 12 | 100% | 76.53 | 0.0 | |||||||
| 28 | 02:55 | Calm | 16.09 | Fair | CLR | 12 | 11 | 94% | 76.53 | 0.0 | |||||||
| 28 | 02:35 | Calm | 16.09 | Fair | CLR | 13 | 13 | 100% | 76.53 | 0.0 | |||||||
| 28 | 02:15 | Calm | 16.09 | Fair | CLR | 14 | 13 | 94% | 76.53 | 0.0 | |||||||
| 28 | 01:56 | Calm | 16.09 | Fair | CLR | 13 | 13 | 100% | 76.53 | 0.0 | |||||||
| 28 | 01:35 | Calm | 16.09 | Fair | CLR | 13 | 12 | 94% | 76.53 | 0.0 | |||||||
| 28 | 01:15 | Calm | 16.09 | Fair | CLR | 13 | 11 | 88% | 76.53 | 0.0 | |||||||
| 28 | 00:55 | Calm | 16.09 | Fair | CLR | 14 | 12 | 88% | 76.53 | 0.0 | |||||||
| 28 | 00:35 | Calm | 16.09 | Fair | CLR | 15 | 13 | 88% | 76.5 | 0.0 | |||||||
| 28 | 00:15 | Calm | 16.09 | Fair | CLR | 16 | 13 | 83% | 76.5 | 0.0 | |||||||
| 27 | 23:55 | Calm | 16.09 | Fair | CLR | 15 | 13 | 88% | 76.5 | 0.0 | |||||||
| 27 | 23:35 | Calm | 16.09 | Fair | CLR | 15 | 12 | 82% | 76.5 | 0.0 | |||||||
| Date | Time (cdt) | Wind (kph) | Vis. (km) | Weather | Sky Cond. | Air | Dwpt | Max. | Min. | Relative Humidity | Wind Chill (°C) | Heat Index (°C) | altimeter (cm) | sea level (mb) | 1 hr | 3 hr | 6 hr |
| 6 hour | |||||||||||||||||
| Temperature (ºC) | Pressure | Precipitation (cm) | |||||||||||||||